Location: Musselshell
(46.5176°N, 108.0911°W)
Time: 16:21:40
(UTC+00:00)

YUBILEINY - Pass Details

Date: 08 July 2022
Orbit: 1478 x 1509 km, 82.5° (Epoch: 14 August)

Event Time Altitude Azimuth Distance (km) Brightness Sun altitude
Rises 09:44:28 0° 352° (N) 4,649 ? -13.4°
Reaches altitude 10° 09:47:37 10° 359° (N) 3,661 ? -13.1°
Maximum altitude 09:55:56 44° 70° (ENE) 1,972 ? -12.3°
Drops below altitude 10° 10:04:08 10° 141° (SE) 3,620 ? -11.4°
Sets 10:07:12 0° 147° (SSE) 4,593 ? -11.1°
